Weather in Orléans

France     47°53′52″N   1°53′40″E
temp.,
°C
wind,
m/s
gust,
m/s
humid.,
%
clouds,
%
prec.,
mm/h
press.,
hPa
HPBL,
m
14 april, wed
wed1423:00+3ne36660 0.0 1031121
02:00+1ne39714 0.0 1031179
05:000ne37750 0.0 1030143
08:00+1ne39750 0.0 1031211
11:00+8ne57470 0.0 10301299
14:00+10ne57375 0.0 10292009
17:00+11ne573596 0.0 10282406
20:00+8ne375269 0.0 1028592
15 april, thu
thu1523:00+4ne411642 0.0 1029305
02:00+2nne411780 0.0 1029283
05:000nne310870 0.0 1029231
08:000nne410850 0.0 1029283
11:00+7ne57575 0.0 1029977
14:00+10ne5641100 0.0 10272368
17:00+10nne5643100 0.0 10262134
20:00+7ne486367 0.1 1026505
16 april, fri
fri1623:00+3nne397612 0.0 1026192
02:00+2nne411810 0.0 1026252
05:00+1nne39864 0.0 1026215
08:00+1nne410825 0.0 1026308
11:00+7ne69515 0.0 10271223
14:00+8ne6946100 0.0 10251832
17:00+9ne6953100 0.1 10251809
20:00+7ne496992 0.3 10251010
17 april, sat
sat1723:00+3nne3108754 0.1 1026287
02:00+5n41174100 0.1 1025411
05:00+2n411915 0.0 1025287
08:00+3n410895 0.0 1026295
11:00+9nne58595 0.0 1025881
14:00+12nne57477 0.0 10241705
17:00+13nne57425 0.0 10231962
20:00+10ne37595 0.0 1023416
18 april, sun
sun1823:00+5n36723 0.0 1025107
02:00+4n36755 0.0 1025110
05:00+3nne369021 0.0 1025117
08:00+4nne268933 0.0 1025140
11:00+9ne356870 0.0 1025523
14:00+13ne4451100 0.0 10241674
17:00+13ne3455100 0.0 10231231
20:00+11e2468100 0.0 1024154